sat.trackr.live / text

‹ back to catalog

STARLINK-36971

NORAD 68165 · 2026-049Z

PAYLOAD ACTIVE UNKNOWN

§ Identity

Operator
Country
US
Launch date
2026-03-13
Launch site
AFWTR
Launch vehicle
Mass (kg)
RCS (m²)

Purposes: comms

External: N2YO · Heavens-Above · Gunter

§ Orbital elements

Epoch: 2026-05-25T01:21:58.752864Z

Period
93.91 min
Inclination
97.2852°
Eccentricity
0.0001361
Mean motion
15.33451431 rev/d
Perigee alt
464.6 km
Apogee alt
466.5 km
Semi-major
6,843.7 km
B*
3.5272e-4
RAAN
166.7604°
Arg perigee
94.8826°
Mean anomaly
265.2572°
Rev number
1,135

§ Raw data

STARLINK-369711 68165U 26049Z   26145.05693001  .00011331  00000+0  35272-3 0  99992 68165  97.2852 166.7604 0001361  94.8826 265.2572 15.33451431 11358

JSON: /api/v1/satellites/68165 · /tle

For live sub-satellite position, see the globe view (requires WebGL).

§ Visibility from observer

Set your observer location to see the next 7 days of passes ≥ 10°. The values pass through the URL so the page stays shareable.

No JS? Fill the form by hand. The geolocation button needs JavaScript.